Time,TemperatureF,DewpointF,PressureIn,WindDirection,WindDirectionDegrees,WindSpeedMPH,WindSpeedGustMPH,Humidity,HourlyPrecipIn,Conditions,Clouds,dailyrainin,SoftwareType,DateUTC
2013-04-02 00:00:00,64.3,61.3,29.93,SSE,158,3.0,-999.0,90,0.00,,,0.07,Wunderground v.1.15,2013-04-02 05:00:00,
2013-04-02 00:05:00,64.3,61.3,29.93,SSE,158,3.0,-999.0,90,0.00,,,0.07,Wunderground v.1.15,2013-04-02 05:05:00,
2013-04-02 00:10:00,64.3,61.3,29.93,SSE,158,3.0,-999.0,90,0.00,,,0.07,Wunderground v.1.15,2013-04-02 05:10:00,
2013-04-02 00:15:00,64.3,61.3,29.93,SSE,158,3.0,-999.0,90,0.00,,,0.07,Wunderground v.1.15,2013-04-02 05:15:00,
2013-04-02 00:20:00,64.3,61.3,29.93,SSE,158,3.0,-999.0,90,0.00,,,0.07,Wunderground v.1.15,2013-04-02 05:20:00,
2013-04-02 00:25:00,64.5,61.2,29.94,SSE,158,2.0,-999.0,89,0.00,,,0.07,Wunderground v.1.15,2013-04-02 05:25:00,
2013-04-02 00:30:00,64.5,61.2,29.94,SSE,158,2.0,-999.0,89,0.00,,,0.07,Wunderground v.1.15,2013-04-02 05:30:00,
2013-04-02 00:35:00,64.5,61.2,29.94,SSE,158,2.0,-999.0,89,0.00,,,0.07,Wunderground v.1.15,2013-04-02 05:35:00,
2013-04-02 00:40:00,64.2,60.9,29.95,SSE,158,0.0,-999.0,89,0.00,,,0.07,Wunderground v.1.15,2013-04-02 05:40:00,
2013-04-02 00:45:00,64.2,60.9,29.95,SSE,158,0.0,-999.0,89,0.00,,,0.07,Wunderground v.1.15,2013-04-02 05:45:00,
2013-04-02 00:50:00,64.2,60.9,29.95,SSE,158,0.0,-999.0,89,0.00,,,0.07,Wunderground v.1.15,2013-04-02 05:50:00,
2013-04-02 00:55:00,63.3,60.0,29.95,N/A,-737280,0.0,-999.0,89,0.00,,,0.07,Wunderground v.1.15,2013-04-02 05:55:00,
2013-04-02 01:00:00,63.3,60.0,29.95,N/A,-737280,0.0,-999.0,89,0.00,,,0.07,Wunderground v.1.15,2013-04-02 06:00:00,
2013-04-02 01:05:00,63.3,60.0,29.95,N/A,-737280,0.0,-999.0,89,0.00,,,0.07,Wunderground v.1.15,2013-04-02 06:05:00,
2013-04-02 01:10:00,62.8,60.1,29.94,SSE,158,1.0,-999.0,91,0.00,,,0.07,Wunderground v.1.15,2013-04-02 06:10:00,
2013-04-02 01:15:00,62.8,60.1,29.94,SSE,158,1.0,-999.0,91,0.00,,,0.07,Wunderground v.1.15,2013-04-02 06:15:00,
2013-04-02 01:20:00,62.8,60.1,29.94,SSE,158,1.0,-999.0,91,0.00,,,0.07,Wunderground v.1.15,2013-04-02 06:20:00,
2013-04-02 01:25:00,63.8,61.4,29.94,South,180,4.0,-999.0,92,0.00,,,0.07,Wunderground v.1.15,2013-04-02 06:25:00,
2013-04-02 01:30:00,63.8,61.4,29.94,South,180,4.0,-999.0,92,0.00,,,0.07,Wunderground v.1.15,2013-04-02 06:30:00,
2013-04-02 01:35:00,63.8,61.4,29.94,South,180,4.0,-999.0,92,0.00,,,0.07,Wunderground v.1.15,2013-04-02 06:35:00,
2013-04-02 01:40:00,64.6,61.6,29.94,SSW,203,4.0,-999.0,90,0.00,,,0.07,Wunderground v.1.15,2013-04-02 06:40:00,
2013-04-02 01:45:00,64.6,61.6,29.94,SSW,203,4.0,-999.0,90,0.00,,,0.07,Wunderground v.1.15,2013-04-02 06:45:00,
2013-04-02 01:50:00,64.6,61.6,29.94,SSW,203,4.0,-999.0,90,0.00,,,0.07,Wunderground v.1.15,2013-04-02 06:50:00,
2013-04-02 01:55:00,64.6,61.6,29.94,South,180,2.0,-999.0,90,0.00,,,0.07,Wunderground v.1.15,2013-04-02 06:55:00,
2013-04-02 02:00:00,64.6,61.6,29.94,South,180,2.0,-999.0,90,0.00,,,0.07,Wunderground v.1.15,2013-04-02 07:00:00,
2013-04-02 02:05:00,64.6,61.6,29.94,South,180,2.0,-999.0,90,0.00,,,0.07,Wunderground v.1.15,2013-04-02 07:05:00,
2013-04-02 02:10:00,64.3,61.6,29.94,SW,225,2.0,-999.0,91,0.00,,,0.07,Wunderground v.1.15,2013-04-02 07:10:00,
2013-04-02 02:15:00,64.3,61.6,29.94,SW,225,2.0,-999.0,91,0.00,,,0.07,Wunderground v.1.15,2013-04-02 07:15:00,
2013-04-02 02:20:00,64.3,61.6,29.94,SW,225,2.0,-999.0,91,0.00,,,0.07,Wunderground v.1.15,2013-04-02 07:20:00,
2013-04-02 02:25:00,63.9,61.5,29.95,SW,225,2.0,-999.0,92,0.00,,,0.07,Wunderground v.1.15,2013-04-02 07:25:00,
2013-04-02 02:30:00,63.9,61.5,29.95,SW,225,2.0,-999.0,92,0.00,,,0.07,Wunderground v.1.15,2013-04-02 07:30:00,
2013-04-02 02:35:00,63.9,61.5,29.95,SW,225,2.0,-999.0,92,0.00,,,0.07,Wunderground v.1.15,2013-04-02 07:35:00,
2013-04-02 02:40:00,63.7,61.3,29.96,SW,225,1.0,-999.0,92,0.00,,,0.07,Wunderground v.1.15,2013-04-02 07:40:00,
2013-04-02 02:45:00,63.7,61.3,29.96,SW,225,1.0,-999.0,92,0.00,,,0.07,Wunderground v.1.15,2013-04-02 07:45:00,
2013-04-02 02:50:00,63.7,61.3,29.96,SW,225,1.0,-999.0,92,0.00,,,0.07,Wunderground v.1.15,2013-04-02 07:50:00,
2013-04-02 02:55:00,64.1,62.0,29.96,SW,225,1.0,-999.0,93,0.00,,,0.07,Wunderground v.1.15,2013-04-02 07:55:00,
2013-04-02 03:00:00,64.1,62.0,29.96,SW,225,1.0,-999.0,93,0.00,,,0.07,Wunderground v.1.15,2013-04-02 08:00:00,
2013-04-02 03:05:00,64.1,62.0,29.96,SW,225,1.0,-999.0,93,0.00,,,0.07,Wunderground v.1.15,2013-04-02 08:05:00,
2013-04-02 03:10:00,64.1,62.0,29.96,SSW,203,0.0,-999.0,93,0.00,,,0.07,Wunderground v.1.15,2013-04-02 08:10:00,
2013-04-02 03:15:00,64.1,62.0,29.96,SSW,203,0.0,-999.0,93,0.00,,,0.07,Wunderground v.1.15,2013-04-02 08:15:00,
2013-04-02 03:20:00,64.1,62.0,29.96,SSW,203,0.0,-999.0,93,0.00,,,0.07,Wunderground v.1.15,2013-04-02 08:20:00,
2013-04-02 03:25:00,64.2,62.4,29.95,SSW,203,0.0,-999.0,94,0.00,,,0.07,Wunderground v.1.15,2013-04-02 08:25:00,
2013-04-02 03:30:00,64.2,62.4,29.95,SSW,203,0.0,-999.0,94,0.00,,,0.07,Wunderground v.1.15,2013-04-02 08:30:00,
2013-04-02 03:35:00,64.2,62.4,29.95,SSW,203,0.0,-999.0,94,0.00,,,0.07,Wunderground v.1.15,2013-04-02 08:35:00,
2013-04-02 03:40:00,64.1,62.0,29.94,SW,225,2.0,-999.0,93,0.00,,,0.07,Wunderground v.1.15,2013-04-02 08:40:00,
2013-04-02 03:45:00,64.1,62.0,29.94,SW,225,2.0,-999.0,93,0.00,,,0.07,Wunderground v.1.15,2013-04-02 08:45:00,
2013-04-02 03:50:00,64.1,62.0,29.94,SW,225,2.0,-999.0,93,0.00,,,0.07,Wunderground v.1.15,2013-04-02 08:50:00,
2013-04-02 03:55:00,63.9,62.4,29.93,SSW,203,3.0,-999.0,95,0.00,,,0.07,Wunderground v.1.15,2013-04-02 08:55:00,
2013-04-02 04:00:00,63.9,62.4,29.93,SSW,203,3.0,-999.0,95,0.00,,,0.07,Wunderground v.1.15,2013-04-02 09:00:00,
2013-04-02 04:05:00,63.9,62.4,29.93,SSW,203,3.0,-999.0,95,0.00,,,0.07,Wunderground v.1.15,2013-04-02 09:05:00,
2013-04-02 04:10:00,64.1,62.6,29.92,SSW,203,5.0,-999.0,95,0.00,,,0.07,Wunderground v.1.15,2013-04-02 09:10:00,
2013-04-02 04:15:00,64.1,62.6,29.92,SSW,203,5.0,-999.0,95,0.00,,,0.07,Wunderground v.1.15,2013-04-02 09:15:00,
2013-04-02 04:20:00,64.1,62.6,29.92,SSW,203,5.0,-999.0,95,0.00,,,0.07,Wunderground v.1.15,2013-04-02 09:20:00,
2013-04-02 04:25:00,63.9,62.1,29.93,SW,225,3.0,-999.0,94,0.00,,,0.07,Wunderground v.1.15,2013-04-02 09:25:00,
2013-04-02 04:30:00,63.9,62.1,29.93,SW,225,3.0,-999.0,94,0.00,,,0.07,Wunderground v.1.15,2013-04-02 09:30:00,
2013-04-02 04:35:00,63.9,62.1,29.93,SW,225,3.0,-999.0,94,0.00,,,0.07,Wunderground v.1.15,2013-04-02 09:35:00,
2013-04-02 04:40:00,63.2,61.4,29.93,SW,225,0.0,-999.0,94,0.00,,,0.07,Wunderground v.1.15,2013-04-02 09:40:00,
2013-04-02 04:45:00,63.2,61.4,29.93,SW,225,0.0,-999.0,94,0.00,,,0.07,Wunderground v.1.15,2013-04-02 09:45:00,
2013-04-02 04:50:00,63.2,61.4,29.93,SW,225,0.0,-999.0,94,0.00,,,0.07,Wunderground v.1.15,2013-04-02 09:50:00,
2013-04-02 04:55:00,62.7,61.2,29.94,SSE,158,0.0,-999.0,95,0.00,,,0.07,Wunderground v.1.15,2013-04-02 09:55:00,
2013-04-02 05:00:00,62.7,61.2,29.94,SSE,158,0.0,-999.0,95,0.00,,,0.07,Wunderground v.1.15,2013-04-02 10:00:00,
2013-04-02 05:05:00,62.7,61.2,29.94,SSE,158,0.0,-999.0,95,0.00,,,0.07,Wunderground v.1.15,2013-04-02 10:05:00,
2013-04-02 05:10:00,62.0,60.6,29.93,SSE,158,1.0,-999.0,95,0.00,,,0.07,Wunderground v.1.15,2013-04-02 10:10:00,
2013-04-02 05:15:00,62.0,60.6,29.93,SSE,158,1.0,-999.0,95,0.00,,,0.07,Wunderground v.1.15,2013-04-02 10:15:00,
2013-04-02 05:20:00,62.0,60.6,29.93,SSE,158,1.0,-999.0,95,0.00,,,0.07,Wunderground v.1.15,2013-04-02 10:20:00,
2013-04-02 05:25:00,61.7,60.5,29.93,SSE,158,3.0,-999.0,96,0.00,,,0.07,Wunderground v.1.15,2013-04-02 10:25:00,
2013-04-02 05:30:00,61.7,60.5,29.93,SSE,158,3.0,-999.0,96,0.00,,,0.07,Wunderground v.1.15,2013-04-02 10:30:00,
2013-04-02 05:35:00,61.7,60.5,29.93,SSE,158,3.0,-999.0,96,0.00,,,0.07,Wunderground v.1.15,2013-04-02 10:35:00,
2013-04-02 05:40:00,61.6,60.4,29.92,SSE,158,3.0,-999.0,96,0.00,,,0.07,Wunderground v.1.15,2013-04-02 10:40:00,
2013-04-02 05:45:00,61.6,60.4,29.92,SSE,158,3.0,-999.0,96,0.00,,,0.07,Wunderground v.1.15,2013-04-02 10:45:00,
2013-04-02 05:50:00,61.6,60.4,29.92,SSE,158,3.0,-999.0,96,0.00,,,0.07,Wunderground v.1.15,2013-04-02 10:50:00,
2013-04-02 05:55:00,61.6,60.7,29.93,South,180,3.0,-999.0,97,0.00,,,0.07,Wunderground v.1.15,2013-04-02 10:55:00,
2013-04-02 06:00:00,61.6,60.7,29.93,South,180,3.0,-999.0,97,0.00,,,0.07,Wunderground v.1.15,2013-04-02 11:00:00,
2013-04-02 06:05:00,61.6,60.7,29.93,South,180,3.0,-999.0,97,0.00,,,0.07,Wunderground v.1.15,2013-04-02 11:05:00,
2013-04-02 06:10:00,62.0,61.1,29.92,South,180,5.0,-999.0,97,0.00,,,0.07,Wunderground v.1.15,2013-04-02 11:10:00,
2013-04-02 06:15:00,62.0,61.1,29.92,South,180,5.0,-999.0,97,0.00,,,0.07,Wunderground v.1.15,2013-04-02 11:15:00,
2013-04-02 06:20:00,62.0,61.1,29.92,South,180,5.0,-999.0,97,0.00,,,0.07,Wunderground v.1.15,2013-04-02 11:20:00,
2013-04-02 06:25:00,61.9,61.0,29.92,SSE,158,4.0,-999.0,97,0.00,,,0.07,Wunderground v.1.15,2013-04-02 11:25:00,
2013-04-02 06:30:00,61.9,61.0,29.92,SSE,158,4.0,-999.0,97,0.00,,,0.07,Wunderground v.1.15,2013-04-02 11:30:00,
2013-04-02 06:35:00,61.9,61.0,29.92,SSE,158,4.0,-999.0,97,0.00,,,0.07,Wunderground v.1.15,2013-04-02 11:35:00,
2013-04-02 06:40:00,61.5,60.3,29.90,SE,135,3.0,-999.0,96,0.00,,,0.07,Wunderground v.1.15,2013-04-02 11:40:00,
2013-04-02 06:45:00,61.5,60.3,29.90,SE,135,3.0,-999.0,96,0.00,,,0.07,Wunderground v.1.15,2013-04-02 11:45:00,
2013-04-02 06:50:00,61.5,60.3,29.90,SE,135,3.0,-999.0,96,0.00,,,0.07,Wunderground v.1.15,2013-04-02 11:50:00,
2013-04-02 06:55:00,61.4,60.2,29.90,SE,135,5.0,-999.0,96,0.00,,,0.07,Wunderground v.1.15,2013-04-02 11:55:00,
2013-04-02 07:00:00,61.4,60.2,29.90,SE,135,5.0,-999.0,96,0.00,,,0.07,Wunderground v.1.15,2013-04-02 12:00:00,
2013-04-02 07:05:00,61.4,60.2,29.90,SE,135,5.0,-999.0,96,0.00,,,0.07,Wunderground v.1.15,2013-04-02 12:05:00,
2013-04-02 07:10:00,61.0,60.1,29.90,SE,135,4.0,-999.0,97,0.00,,,0.07,Wunderground v.1.15,2013-04-02 12:10:00,
2013-04-02 07:15:00,61.0,60.1,29.90,SE,135,4.0,-999.0,97,0.00,,,0.07,Wunderground v.1.15,2013-04-02 12:15:00,
2013-04-02 07:20:00,61.0,60.1,29.90,SE,135,4.0,-999.0,97,0.00,,,0.07,Wunderground v.1.15,2013-04-02 12:20:00,
2013-04-02 07:25:00,61.0,60.1,29.91,South,180,5.0,-999.0,97,0.00,,,0.07,Wunderground v.1.15,2013-04-02 12:25:00,
2013-04-02 07:30:00,61.0,60.1,29.91,South,180,5.0,-999.0,97,0.00,,,0.07,Wunderground v.1.15,2013-04-02 12:30:00,
2013-04-02 07:35:00,61.0,60.1,29.91,South,180,5.0,-999.0,97,0.00,,,0.07,Wunderground v.1.15,2013-04-02 12:35:00,
2013-04-02 07:40:00,61.3,60.4,29.91,South,180,6.0,-999.0,97,0.00,,,0.07,Wunderground v.1.15,2013-04-02 12:40:00,
2013-04-02 07:45:00,61.3,60.4,29.91,South,180,6.0,-999.0,97,0.00,,,0.07,Wunderground v.1.15,2013-04-02 12:45:00,
2013-04-02 07:50:00,61.3,60.4,29.91,South,180,6.0,-999.0,97,0.00,,,0.07,Wunderground v.1.15,2013-04-02 12:50:00,
2013-04-02 07:55:00,61.8,60.9,29.92,SSW,203,7.0,-999.0,97,0.00,,,0.07,Wunderground v.1.15,2013-04-02 12:55:00,
2013-04-02 08:00:00,61.8,60.9,29.92,SSW,203,7.0,-999.0,97,0.00,,,0.07,Wunderground v.1.15,2013-04-02 13:00:00,
2013-04-02 08:05:00,61.8,60.9,29.92,SSW,203,7.0,-999.0,97,0.00,,,0.07,Wunderground v.1.15,2013-04-02 13:05:00,
2013-04-02 08:10:00,62.0,61.1,29.95,SSW,203,6.0,-999.0,97,0.00,,,0.07,Wunderground v.1.15,2013-04-02 13:10:00,
2013-04-02 08:15:00,62.0,61.1,29.95,SSW,203,6.0,-999.0,97,0.00,,,0.07,Wunderground v.1.15,2013-04-02 13:15:00,
2013-04-02 08:20:00,62.0,61.1,29.95,SSW,203,6.0,-999.0,97,0.00,,,0.07,Wunderground v.1.15,2013-04-02 13:20:00,
2013-04-02 08:25:00,62.5,61.6,29.97,SSE,158,2.0,-999.0,97,0.00,,,0.07,Wunderground v.1.15,2013-04-02 13:25:00,
2013-04-02 08:30:00,62.5,61.6,29.97,SSE,158,2.0,-999.0,97,0.00,,,0.07,Wunderground v.1.15,2013-04-02 13:30:00,
2013-04-02 08:35:00,62.5,61.6,29.97,SSE,158,2.0,-999.0,97,0.00,,,0.07,Wunderground v.1.15,2013-04-02 13:35:00,
2013-04-02 08:40:00,62.9,61.7,29.98,SE,135,2.0,-999.0,96,0.00,,,0.07,Wunderground v.1.15,2013-04-02 13:40:00,
2013-04-02 08:45:00,62.9,61.7,29.98,SE,135,2.0,-999.0,96,0.00,,,0.07,Wunderground v.1.15,2013-04-02 13:45:00,
2013-04-02 08:50:00,62.9,61.7,29.98,SE,135,2.0,-999.0,96,0.00,,,0.07,Wunderground v.1.15,2013-04-02 13:50:00,
2013-04-02 08:55:00,63.2,62.0,29.97,SSE,158,3.0,-999.0,96,0.00,,,0.07,Wunderground v.1.15,2013-04-02 13:55:00,
2013-04-02 09:00:00,63.2,62.0,29.97,SSE,158,3.0,-999.0,96,0.00,,,0.07,Wunderground v.1.15,2013-04-02 14:00:00,
2013-04-02 09:05:00,63.2,62.0,29.97,SSE,158,3.0,-999.0,96,0.00,,,0.07,Wunderground v.1.15,2013-04-02 14:05:00,
2013-04-02 09:10:00,63.8,62.6,29.97,SSE,158,4.0,-999.0,96,0.00,,,0.07,Wunderground v.1.15,2013-04-02 14:10:00,
2013-04-02 09:15:00,63.8,62.6,29.97,SSE,158,4.0,-999.0,96,0.00,,,0.07,Wunderground v.1.15,2013-04-02 14:15:00,
2013-04-02 09:20:00,63.8,62.6,29.97,SSE,158,4.0,-999.0,96,0.00,,,0.07,Wunderground v.1.15,2013-04-02 14:20:00,
2013-04-02 09:25:00,64.3,62.8,29.97,SE,135,3.0,-999.0,95,0.00,,,0.07,Wunderground v.1.15,2013-04-02 14:25:00,
2013-04-02 09:30:00,64.3,62.8,29.97,SE,135,3.0,-999.0,95,0.00,,,0.07,Wunderground v.1.15,2013-04-02 14:30:00,
2013-04-02 09:35:00,64.3,62.8,29.97,SE,135,3.0,-999.0,95,0.00,,,0.07,Wunderground v.1.15,2013-04-02 14:35:00,
2013-04-02 09:40:00,65.3,63.2,29.97,SE,135,5.0,-999.0,93,0.00,,,0.07,Wunderground v.1.15,2013-04-02 14:40:00,
2013-04-02 09:45:00,65.3,63.2,29.97,SE,135,5.0,-999.0,93,0.00,,,0.07,Wunderground v.1.15,2013-04-02 14:45:00,
2013-04-02 09:50:00,65.3,63.2,29.97,SE,135,5.0,-999.0,93,0.00,,,0.07,Wunderground v.1.15,2013-04-02 14:50:00,
2013-04-02 09:55:00,65.8,63.1,29.97,SE,135,5.0,-999.0,91,0.00,,,0.07,Wunderground v.1.15,2013-04-02 14:55:00,
2013-04-02 10:00:00,65.8,63.1,29.97,SE,135,5.0,-999.0,91,0.00,,,0.07,Wunderground v.1.15,2013-04-02 15:00:00,
2013-04-02 10:05:00,65.8,63.1,29.97,SE,135,5.0,-999.0,91,0.00,,,0.07,Wunderground v.1.15,2013-04-02 15:05:00,
2013-04-02 10:10:00,66.4,63.4,29.97,SE,135,5.0,-999.0,90,0.00,,,0.07,Wunderground v.1.15,2013-04-02 15:10:00,
2013-04-02 10:15:00,66.4,63.4,29.97,SE,135,5.0,-999.0,90,0.00,,,0.07,Wunderground v.1.15,2013-04-02 15:15:00,
2013-04-02 10:20:00,66.4,63.4,29.97,SE,135,5.0,-999.0,90,0.00,,,0.07,Wunderground v.1.15,2013-04-02 15:20:00,
2013-04-02 10:25:00,67.6,63.9,29.96,ESE,113,6.0,-999.0,88,0.00,,,0.07,Wunderground v.1.15,2013-04-02 15:25:00,
2013-04-02 10:30:00,67.6,63.9,29.96,ESE,113,6.0,-999.0,88,0.00,,,0.07,Wunderground v.1.15,2013-04-02 15:30:00,
2013-04-02 10:35:00,67.6,63.9,29.96,ESE,113,6.0,-999.0,88,0.00,,,0.07,Wunderground v.1.15,2013-04-02 15:35:00,
2013-04-02 10:40:00,68.9,63.5,29.96,SSE,158,8.0,-999.0,83,0.00,,,0.07,Wunderground v.1.15,2013-04-02 15:40:00,
2013-04-02 10:45:00,68.9,63.5,29.96,SSE,158,8.0,-999.0,83,0.00,,,0.07,Wunderground v.1.15,2013-04-02 15:45:00,
2013-04-02 10:50:00,68.9,63.5,29.96,SSE,158,8.0,-999.0,83,0.00,,,0.07,Wunderground v.1.15,2013-04-02 15:50:00,
2013-04-02 10:55:00,70.6,64.5,29.95,SE,135,7.0,-999.0,81,0.00,,,0.07,Wunderground v.1.15,2013-04-02 15:55:00,
2013-04-02 11:00:00,70.6,64.5,29.95,SE,135,7.0,-999.0,81,0.00,,,0.07,Wunderground v.1.15,2013-04-02 16:00:00,
2013-04-02 11:05:00,70.6,64.5,29.95,SE,135,7.0,-999.0,81,0.00,,,0.07,Wunderground v.1.15,2013-04-02 16:05:00,
2013-04-02 11:10:00,70.8,64.3,29.94,SSE,158,9.0,-999.0,80,0.00,,,0.07,Wunderground v.1.15,2013-04-02 16:10:00,
2013-04-02 11:15:00,70.8,64.3,29.94,SSE,158,9.0,-999.0,80,0.00,,,0.07,Wunderground v.1.15,2013-04-02 16:15:00,
2013-04-02 11:20:00,70.8,64.3,29.94,SSE,158,9.0,-999.0,80,0.00,,,0.07,Wunderground v.1.15,2013-04-02 16:20:00,
2013-04-02 11:25:00,70.5,64.0,29.95,SSE,158,8.0,-999.0,80,0.00,,,0.07,Wunderground v.1.15,2013-04-02 16:25:00,
2013-04-02 11:35:00,70.5,64.0,29.95,SSE,158,8.0,-999.0,80,0.00,,,0.07,Wunderground v.1.15,2013-04-02 16:35:00,
2013-04-02 11:40:00,70.7,64.6,29.95,SSE,158,8.0,-999.0,81,0.00,,,0.07,Wunderground v.1.15,2013-04-02 16:40:00,
2013-04-02 11:45:00,70.7,64.6,29.95,SSE,158,8.0,-999.0,81,0.00,,,0.07,Wunderground v.1.15,2013-04-02 16:45:00,
2013-04-02 11:50:00,70.7,64.6,29.95,SSE,158,8.0,-999.0,81,0.00,,,0.07,Wunderground v.1.15,2013-04-02 16:50:00,
2013-04-02 11:55:00,71.7,64.1,29.95,SSE,158,7.0,-999.0,77,0.00,,,0.07,Wunderground v.1.15,2013-04-02 16:55:00,
2013-04-02 12:00:00,71.7,64.1,29.95,SSE,158,7.0,-999.0,77,0.00,,,0.07,Wunderground v.1.15,2013-04-02 17:00:00,
2013-04-02 12:05:00,71.7,64.1,29.95,SSE,158,7.0,-999.0,77,0.00,,,0.07,Wunderground v.1.15,2013-04-02 17:05:00,
2013-04-02 12:10:00,71.1,64.3,29.96,SE,135,4.0,-999.0,79,0.00,,,0.07,Wunderground v.1.15,2013-04-02 17:10:00,
2013-04-02 12:15:00,71.1,64.3,29.96,SE,135,4.0,-999.0,79,0.00,,,0.07,Wunderground v.1.15,2013-04-02 17:15:00,
2013-04-02 12:20:00,71.1,64.3,29.96,SE,135,4.0,-999.0,79,0.00,,,0.07,Wunderground v.1.15,2013-04-02 17:20:00,
2013-04-02 12:25:00,71.2,64.0,29.95,SSE,158,4.0,-999.0,78,0.00,,,0.07,Wunderground v.1.15,2013-04-02 17:25:00,
2013-04-02 12:30:00,71.2,64.0,29.95,SSE,158,4.0,-999.0,78,0.00,,,0.07,Wunderground v.1.15,2013-04-02 17:30:00,
2013-04-02 12:35:00,71.2,64.0,29.95,SSE,158,4.0,-999.0,78,0.00,,,0.07,Wunderground v.1.15,2013-04-02 17:35:00,
2013-04-02 12:40:00,71.2,64.4,29.95,SW,225,4.0,-999.0,79,0.00,,,0.07,Wunderground v.1.15,2013-04-02 17:40:00,
2013-04-02 12:45:00,71.2,64.4,29.95,SW,225,4.0,-999.0,79,0.00,,,0.07,Wunderground v.1.15,2013-04-02 17:45:00,
2013-04-02 12:50:00,71.2,64.4,29.95,SW,225,4.0,-999.0,79,0.00,,,0.07,Wunderground v.1.15,2013-04-02 17:50:00,
2013-04-02 12:55:00,71.4,64.2,29.95,SW,225,3.0,-999.0,78,0.00,,,0.07,Wunderground v.1.15,2013-04-02 17:55:00,
2013-04-02 13:00:00,71.4,64.2,29.95,SW,225,3.0,-999.0,78,0.00,,,0.07,Wunderground v.1.15,2013-04-02 18:00:00,
2013-04-02 13:05:00,71.4,64.2,29.95,SW,225,3.0,-999.0,78,0.00,,,0.07,Wunderground v.1.15,2013-04-02 18:05:00,
2013-04-02 13:10:00,72.0,64.8,29.94,SSW,203,4.0,-999.0,78,0.00,,,0.07,Wunderground v.1.15,2013-04-02 18:10:00,
2013-04-02 13:15:00,72.0,64.8,29.94,SSW,203,4.0,-999.0,78,0.00,,,0.07,Wunderground v.1.15,2013-04-02 18:15:00,
2013-04-02 13:20:00,72.0,64.8,29.94,SSW,203,4.0,-999.0,78,0.00,,,0.07,Wunderground v.1.15,2013-04-02 18:20:00,
2013-04-02 13:25:00,72.5,64.5,29.94,SSW,203,4.0,-999.0,76,0.00,,,0.07,Wunderground v.1.15,2013-04-02 18:25:00,
2013-04-02 13:30:00,72.5,64.5,29.94,SSW,203,4.0,-999.0,76,0.00,,,0.07,Wunderground v.1.15,2013-04-02 18:30:00,
2013-04-02 13:35:00,72.5,64.5,29.94,SSW,203,4.0,-999.0,76,0.00,,,0.07,Wunderground v.1.15,2013-04-02 18:35:00,
2013-04-02 13:40:00,72.7,64.7,29.94,SW,225,3.0,-999.0,76,0.00,,,0.07,Wunderground v.1.15,2013-04-02 18:40:00,
2013-04-02 13:45:00,72.7,64.7,29.94,SW,225,3.0,-999.0,76,0.00,,,0.07,Wunderground v.1.15,2013-04-02 18:45:00,
2013-04-02 13:50:00,72.7,64.7,29.94,SW,225,3.0,-999.0,76,0.00,,,0.07,Wunderground v.1.15,2013-04-02 18:50:00,
2013-04-02 13:55:00,72.6,64.6,29.93,SSW,203,3.0,-999.0,76,0.00,,,0.07,Wunderground v.1.15,2013-04-02 18:55:00,
2013-04-02 14:00:00,72.6,64.6,29.93,SSW,203,3.0,-999.0,76,0.00,,,0.07,Wunderground v.1.15,2013-04-02 19:00:00,
2013-04-02 14:05:00,72.6,64.6,29.93,SSW,203,3.0,-999.0,76,0.00,,,0.07,Wunderground v.1.15,2013-04-02 19:05:00,
2013-04-02 14:10:00,72.7,65.1,29.92,SSE,158,1.0,-999.0,77,0.00,,,0.07,Wunderground v.1.15,2013-04-02 19:10:00,
2013-04-02 14:15:00,72.7,65.1,29.92,SSE,158,1.0,-999.0,77,0.00,,,0.07,Wunderground v.1.15,2013-04-02 19:15:00,
2013-04-02 14:20:00,72.7,65.1,29.92,SSE,158,1.0,-999.0,77,0.00,,,0.07,Wunderground v.1.15,2013-04-02 19:20:00,
2013-04-02 14:25:00,72.0,65.1,29.92,South,180,2.0,-999.0,79,0.01,,,0.07,Wunderground v.1.15,2013-04-02 19:25:00,
2013-04-02 14:30:00,72.0,65.1,29.92,South,180,2.0,-999.0,79,0.01,,,0.07,Wunderground v.1.15,2013-04-02 19:30:00,
2013-04-02 14:35:00,72.0,65.1,29.92,South,180,2.0,-999.0,79,0.01,,,0.07,Wunderground v.1.15,2013-04-02 19:35:00,
2013-04-02 14:40:00,68.3,64.3,29.92,WNW,293,2.0,-999.0,87,0.07,,,0.07,Wunderground v.1.15,2013-04-02 19:40:00,
2013-04-02 14:45:00,68.3,64.3,29.92,WNW,293,2.0,-999.0,87,0.07,,,0.07,Wunderground v.1.15,2013-04-02 19:45:00,
2013-04-02 14:50:00,68.3,64.3,29.92,WNW,293,2.0,-999.0,87,0.07,,,0.15,Wunderground v.1.15,2013-04-02 19:50:00,
2013-04-02 14:55:00,66.3,63.9,29.92,WNW,293,2.0,-999.0,92,0.14,,,0.15,Wunderground v.1.15,2013-04-02 19:55:00,
2013-04-02 15:00:00,66.3,63.9,29.92,WNW,293,2.0,-999.0,92,0.14,,,0.15,Wunderground v.1.15,2013-04-02 20:00:00,
2013-04-02 15:05:00,66.3,63.9,29.92,WNW,293,2.0,-999.0,92,0.14,,,0.15,Wunderground v.1.15,2013-04-02 20:05:00,
2013-04-02 15:10:00,65.9,63.8,29.92,NNW,338,0.0,-999.0,93,0.15,,,0.17,Wunderground v.1.15,2013-04-02 20:10:00,
2013-04-02 15:15:00,65.9,63.8,29.92,NNW,338,0.0,-999.0,93,0.15,,,0.17,Wunderground v.1.15,2013-04-02 20:15:00,
2013-04-02 15:20:00,65.9,63.8,29.92,NNW,338,0.0,-999.0,93,0.15,,,0.17,Wunderground v.1.15,2013-04-02 20:20:00,
2013-04-02 15:25:00,65.9,64.1,29.91,NNE,23,4.0,-999.0,94,0.15,,,0.17,Wunderground v.1.15,2013-04-02 20:25:00,
2013-04-02 15:30:00,65.9,64.1,29.91,NNE,23,4.0,-999.0,94,0.15,,,0.17,Wunderground v.1.15,2013-04-02 20:30:00,
2013-04-02 15:35:00,65.9,64.1,29.91,NNE,23,4.0,-999.0,94,0.15,,,0.17,Wunderground v.1.15,2013-04-02 20:35:00,
2013-04-02 15:40:00,65.7,64.2,29.91,NNE,23,6.0,-999.0,95,0.09,,,0.17,Wunderground v.1.15,2013-04-02 20:40:00,
2013-04-02 15:45:00,65.7,64.2,29.91,NNE,23,6.0,-999.0,95,0.09,,,0.17,Wunderground v.1.15,2013-04-02 20:45:00,
2013-04-02 15:50:00,65.7,64.2,29.91,NNE,23,6.0,-999.0,95,0.09,,,0.17,Wunderground v.1.15,2013-04-02 20:50:00,
2013-04-02 15:55:00,65.4,63.9,29.91,NE,45,5.0,-999.0,95,0.02,,,0.17,Wunderground v.1.15,2013-04-02 20:55:00,
2013-04-02 16:00:00,65.4,63.9,29.91,NE,45,5.0,-999.0,95,0.02,,,0.17,Wunderground v.1.15,2013-04-02 21:00:00,
2013-04-02 16:05:00,65.4,63.9,29.91,NE,45,5.0,-999.0,95,0.02,,,0.17,Wunderground v.1.15,2013-04-02 21:05:00,
2013-04-02 16:10:00,65.2,63.7,29.90,NE,45,4.0,-999.0,95,0.01,,,0.17,Wunderground v.1.15,2013-04-02 21:10:00,
2013-04-02 16:15:00,65.2,63.7,29.90,NE,45,4.0,-999.0,95,0.01,,,0.17,Wunderground v.1.15,2013-04-02 21:15:00,
2013-04-02 16:20:00,65.2,63.7,29.90,NE,45,4.0,-999.0,95,0.01,,,0.17,Wunderground v.1.15,2013-04-02 21:20:00,
2013-04-02 16:25:00,65.5,63.1,29.90,NE,45,4.0,-999.0,92,0.01,,,0.17,Wunderground v.1.15,2013-04-02 21:25:00,
2013-04-02 16:30:00,65.5,63.1,29.90,NE,45,4.0,-999.0,92,0.01,,,0.17,Wunderground v.1.15,2013-04-02 21:30:00,
2013-04-02 16:35:00,65.5,63.1,29.90,NE,45,4.0,-999.0,92,0.01,,,0.17,Wunderground v.1.15,2013-04-02 21:35:00,
2013-04-02 16:40:00,65.9,62.9,29.88,ENE,68,3.0,-999.0,90,0.01,,,0.17,Wunderground v.1.15,2013-04-02 21:40:00,
2013-04-02 16:45:00,65.9,62.9,29.88,ENE,68,3.0,-999.0,90,0.01,,,0.17,Wunderground v.1.15,2013-04-02 21:45:00,
2013-04-02 16:50:00,65.9,62.9,29.88,ENE,68,3.0,-999.0,90,0.01,,,0.17,Wunderground v.1.15,2013-04-02 21:50:00,
2013-04-02 16:55:00,66.6,63.6,29.87,East,90,5.0,-999.0,90,0.01,,,0.17,Wunderground v.1.15,2013-04-02 21:55:00,
2013-04-02 17:00:00,66.6,63.6,29.87,East,90,5.0,-999.0,90,0.01,,,0.17,Wunderground v.1.15,2013-04-02 22:00:00,
2013-04-02 17:05:00,66.6,63.6,29.87,East,90,5.0,-999.0,90,0.01,,,0.17,Wunderground v.1.15,2013-04-02 22:05:00,
2013-04-02 17:10:00,67.3,63.9,29.86,ESE,113,9.0,-999.0,89,0.01,,,0.17,Wunderground v.1.15,2013-04-02 22:10:00,
2013-04-02 17:15:00,67.3,63.9,29.86,ESE,113,9.0,-999.0,89,0.01,,,0.17,Wunderground v.1.15,2013-04-02 22:15:00,
2013-04-02 17:20:00,67.3,63.9,29.86,ESE,113,9.0,-999.0,89,0.01,,,0.17,Wunderground v.1.15,2013-04-02 22:20:00,
2013-04-02 17:25:00,66.8,62.8,29.84,ESE,113,9.0,-999.0,87,0.00,,,0.17,Wunderground v.1.15,2013-04-02 22:25:00,
2013-04-02 17:30:00,66.8,62.8,29.84,ESE,113,9.0,-999.0,87,0.00,,,0.17,Wunderground v.1.15,2013-04-02 22:30:00,
2013-04-02 17:35:00,66.8,62.8,29.84,ESE,113,9.0,-999.0,87,0.00,,,0.17,Wunderground v.1.15,2013-04-02 22:35:00,
2013-04-02 17:40:00,67.3,63.0,29.83,ESE,113,10.0,-999.0,86,0.00,,,0.17,Wunderground v.1.15,2013-04-02 22:40:00,
2013-04-02 17:45:00,67.3,63.0,29.83,ESE,113,10.0,-999.0,86,0.00,,,0.17,Wunderground v.1.15,2013-04-02 22:45:00,
2013-04-02 17:50:00,67.3,63.0,29.83,ESE,113,10.0,-999.0,86,0.00,,,0.17,Wunderground v.1.15,2013-04-02 22:50:00,
2013-04-02 17:55:00,66.8,62.5,29.83,ESE,113,9.0,-999.0,86,0.00,,,0.17,Wunderground v.1.15,2013-04-02 22:55:00,
2013-04-02 18:00:00,66.8,62.5,29.83,ESE,113,9.0,-999.0,86,0.00,,,0.17,Wunderground v.1.15,2013-04-02 23:00:00,
2013-04-02 18:05:00,66.8,62.5,29.83,ESE,113,9.0,-999.0,86,0.00,,,0.17,Wunderground v.1.15,2013-04-02 23:05:00,
2013-04-02 18:10:00,66.6,62.9,29.84,ESE,113,8.0,-999.0,88,0.00,,,0.17,Wunderground v.1.15,2013-04-02 23:10:00,
2013-04-02 18:15:00,66.6,62.9,29.84,ESE,113,8.0,-999.0,88,0.00,,,0.17,Wunderground v.1.15,2013-04-02 23:15:00,
2013-04-02 18:20:00,66.6,62.9,29.84,ESE,113,8.0,-999.0,88,0.00,,,0.17,Wunderground v.1.15,2013-04-02 23:20:00,
2013-04-02 18:25:00,66.4,62.7,29.84,East,90,7.0,-999.0,88,0.00,,,0.17,Wunderground v.1.15,2013-04-02 23:25:00,
2013-04-02 18:30:00,66.4,62.7,29.84,East,90,7.0,-999.0,88,0.00,,,0.17,Wunderground v.1.15,2013-04-02 23:30:00,
2013-04-02 18:35:00,66.4,62.7,29.84,East,90,7.0,-999.0,88,0.00,,,0.17,Wunderground v.1.15,2013-04-02 23:35:00,
2013-04-02 18:40:00,66.4,63.1,29.85,East,90,6.0,-999.0,89,0.00,,,0.17,Wunderground v.1.15,2013-04-02 23:40:00,
2013-04-02 18:45:00,66.4,63.1,29.85,East,90,6.0,-999.0,89,0.00,,,0.17,Wunderground v.1.15,2013-04-02 23:45:00,
2013-04-02 18:50:00,66.4,63.1,29.85,East,90,6.0,-999.0,89,0.00,,,0.17,Wunderground v.1.15,2013-04-02 23:50:00,
2013-04-02 18:55:00,66.1,63.1,29.86,East,90,5.0,-999.0,90,0.00,,,0.17,Wunderground v.1.15,2013-04-02 23:55:00,
2013-04-02 19:00:00,66.1,63.1,29.86,East,90,5.0,-999.0,90,0.00,,,0.17,Wunderground v.1.15,2013-04-03 00:00:00,
2013-04-02 19:05:00,66.1,63.1,29.86,East,90,5.0,-999.0,90,0.00,,,0.17,Wunderground v.1.15,2013-04-03 00:05:00,
2013-04-02 19:10:00,65.8,63.1,29.86,ESE,113,4.0,-999.0,91,0.00,,,0.17,Wunderground v.1.15,2013-04-03 00:10:00,
2013-04-02 19:15:00,65.8,63.1,29.86,ESE,113,4.0,-999.0,91,0.00,,,0.17,Wunderground v.1.15,2013-04-03 00:15:00,
2013-04-02 19:20:00,65.8,63.1,29.86,ESE,113,4.0,-999.0,91,0.00,,,0.17,Wunderground v.1.15,2013-04-03 00:20:00,
2013-04-02 19:25:00,65.6,63.2,29.86,East,90,4.0,-999.0,92,0.00,,,0.17,Wunderground v.1.15,2013-04-03 00:25:00,
2013-04-02 19:30:00,65.6,63.2,29.86,East,90,4.0,-999.0,92,0.00,,,0.17,Wunderground v.1.15,2013-04-03 00:30:00,
2013-04-02 19:35:00,65.6,63.2,29.86,East,90,4.0,-999.0,92,0.00,,,0.17,Wunderground v.1.15,2013-04-03 00:35:00,
2013-04-02 19:40:00,65.4,63.0,29.86,ENE,68,1.0,-999.0,92,0.00,,,0.17,Wunderground v.1.15,2013-04-03 00:40:00,
2013-04-02 19:45:00,65.3,63.2,29.86,ENE,67,1.0,8.0,93,0.00,,,0.17,Wunderground v.1.15,2013-04-03 00:45:00,
2013-04-02 19:55:00,65.2,63.1,29.86,ENE,71,2.0,2.0,93,0.00,,,0.17,Wunderground v.1.15,2013-04-03 00:55:00,
2013-04-02 20:00:00,65.2,63.1,29.86,ENE,69,3.0,5.0,93,0.00,,,0.17,Wunderground v.1.15,2013-04-03 01:00:00,
2013-04-02 20:05:00,65.1,63.0,29.85,East,98,3.0,5.0,93,0.00,,,0.17,Wunderground v.1.15,2013-04-03 01:05:00,
2013-04-02 20:10:00,65.0,62.9,29.85,ENE,65,4.0,6.0,93,0.00,,,0.17,Wunderground v.1.15,2013-04-03 01:10:00,
2013-04-02 20:15:00,64.9,62.8,29.85,ENE,76,4.0,6.0,93,0.00,,,0.17,Wunderground v.1.15,2013-04-03 01:15:00,
2013-04-02 20:20:00,64.8,62.7,29.86,ENE,60,3.0,3.0,93,0.00,,,0.17,Wunderground v.1.15,2013-04-03 01:20:00,
2013-04-02 20:25:00,64.7,62.6,29.86,ENE,64,3.0,3.0,93,0.00,,,0.17,Wunderground v.1.15,2013-04-03 01:25:00,
2013-04-02 20:30:00,64.6,62.5,29.86,ENE,72,3.0,3.0,93,0.00,,,0.17,Wunderground v.1.15,2013-04-03 01:30:00,
2013-04-02 20:35:00,64.5,62.4,29.86,ENE,63,4.0,4.0,93,0.00,,,0.17,Wunderground v.1.15,2013-04-03 01:35:00,
2013-04-02 20:40:00,64.5,62.4,29.86,ENE,71,4.0,4.0,93,0.00,,,0.17,Wunderground v.1.15,2013-04-03 01:40:00,
2013-04-02 20:45:00,64.4,62.6,29.86,ENE,67,4.0,4.0,94,0.00,,,0.17,Wunderground v.1.15,2013-04-03 01:45:00,
2013-04-02 20:50:00,64.2,62.4,29.86,ENE,71,5.0,5.0,94,0.00,,,0.17,Wunderground v.1.15,2013-04-03 01:50:00,
2013-04-02 20:55:00,64.1,62.6,29.87,ENE,66,5.0,5.0,95,0.00,,,0.17,Wunderground v.1.15,2013-04-03 01:55:00,
2013-04-02 21:00:00,63.9,62.4,29.87,ENE,61,5.0,5.0,95,0.00,,,0.17,Wunderground v.1.15,2013-04-03 02:00:00,
2013-04-02 21:15:00,63.5,62.0,29.88,ENE,78,8.0,13.0,95,0.00,,,0.17,Wunderground v.1.15,2013-04-03 02:15:00,
2013-04-02 21:20:00,63.3,61.8,29.87,ENE,69,8.0,11.0,95,0.00,,,0.17,Wunderground v.1.15,2013-04-03 02:20:00,
2013-04-02 21:25:00,63.3,61.8,29.88,East,79,8.0,11.0,95,0.00,,,0.17,Wunderground v.1.15,2013-04-03 02:25:00,
2013-04-02 21:30:00,63.2,61.7,29.88,ENE,64,7.0,7.0,95,0.00,,,0.17,Wunderground v.1.15,2013-04-03 02:30:00,
2013-04-02 21:35:00,63.2,61.7,29.88,ENE,72,6.0,7.0,95,0.00,,,0.17,Wunderground v.1.15,2013-04-03 02:35:00,
2013-04-02 21:40:00,63.1,61.6,29.89,ENE,71,7.0,7.0,95,0.00,,,0.17,Wunderground v.1.15,2013-04-03 02:40:00,
2013-04-02 21:45:00,63.1,61.6,29.89,East,82,8.0,8.0,95,0.00,,,0.17,Wunderground v.1.15,2013-04-03 02:45:00,
2013-04-02 22:00:00,62.9,61.1,29.88,ENE,75,8.0,8.0,94,0.00,,,0.17,Wunderground v.1.15,2013-04-03 03:00:00,
2013-04-02 22:05:00,62.8,60.7,29.87,East,83,9.0,10.0,93,0.00,,,0.17,Wunderground v.1.15,2013-04-03 03:05:00,
2013-04-02 22:10:00,62.8,60.4,29.87,ENE,76,9.0,9.0,92,0.00,,,0.17,Wunderground v.1.15,2013-04-03 03:10:00,
2013-04-02 22:15:00,62.9,60.2,29.87,East,80,9.0,11.0,91,0.00,,,0.17,Wunderground v.1.15,2013-04-03 03:15:00,
2013-04-02 22:20:00,62.9,60.2,29.87,ENE,73,10.0,10.0,91,0.00,,,0.17,Wunderground v.1.15,2013-04-03 03:20:00,
2013-04-02 22:25:00,62.9,60.2,29.88,East,80,9.0,10.0,91,0.00,,,0.17,Wunderground v.1.15,2013-04-03 03:25:00,
2013-04-02 22:30:00,62.8,60.1,29.89,East,97,8.0,8.0,91,0.00,,,0.17,Wunderground v.1.15,2013-04-03 03:30:00,
2013-04-02 22:35:00,62.8,60.1,29.89,ENE,74,7.0,8.0,91,0.00,,,0.17,Wunderground v.1.15,2013-04-03 03:35:00,
2013-04-02 22:50:00,62.8,60.1,29.90,NE,53,5.0,6.0,91,0.00,,,0.17,Wunderground v.1.15,2013-04-03 03:50:00,
2013-04-02 23:00:00,62.9,60.5,29.89,ENE,71,6.0,6.0,92,0.00,,,0.17,Wunderground v.1.15,2013-04-03 04:00:00,
2013-04-02 23:05:00,62.9,60.5,29.89,ENE,75,6.0,11.0,92,0.00,,,0.17,Wunderground v.1.15,2013-04-03 04:05:00,
2013-04-02 23:15:00,62.8,61.0,29.89,ENE,67,7.0,7.0,94,0.00,,,0.17,Wunderground v.1.15,2013-04-03 04:15:00,
2013-04-02 23:20:00,62.8,61.0,29.89,ESE,107,8.0,8.0,94,0.00,,,0.17,Wunderground v.1.15,2013-04-03 04:20:00,
2013-04-02 23:25:00,62.8,61.0,29.89,NE,40,8.0,8.0,94,0.00,,,0.17,Wunderground v.1.15,2013-04-03 04:25:00,
2013-04-02 23:30:00,62.8,61.0,29.88,ENE,76,8.0,8.0,94,0.00,,,0.17,Wunderground v.1.15,2013-04-03 04:30:00,
2013-04-02 23:40:00,62.6,60.8,29.88,ENE,77,10.0,15.0,94,0.00,,,0.17,Wunderground v.1.15,2013-04-03 04:40:00,
2013-04-02 23:45:00,62.4,60.7,29.88,NNE,30,11.0,15.0,94,0.00,,,0.17,Wunderground v.1.15,2013-04-03 04:45:00,
2013-04-02 23:50:00,60.6,58.0,29.88,NE,52,12.0,20.0,91,0.00,,,0.00,Wunderground v.1.15,2013-04-03 04:50:00,